Clinton, OK

11:13 AM CDT on May 22, 2018 (GMT -0500)
Clinton Municipal

Weather History for KCLK - April, 2014

Change the Weather History Date:

Thursday, April 3, 2014

  Actual Average (KCSM) Record (KCSM)
Temperature  
Mean Temperature 57 °F -  
Max Temperature 73 °F 64 °F 98 °F (2011)
Min Temperature 41 °F 42 °F 33 °F (2002)
Degree Days  
Heating Degree Days 8    
Growing Degree Days 7 (Base 50)    
Moisture  
Dew Point 44 °F    
Average Humidity 61    
Maximum Humidity 94    
Minimum Humidity 14    
Precipitation  
Precipitation 0.00 in - - ()
Sea Level Pressure  
Sea Level Pressure 29.70 in    
Wind  
Wind Speed 16 mph (West)    
Max Wind Speed 31 mph    
Max Gust Speed 41 mph    
Visibility 9 miles    
Events      
Averages and records for this station are not official NWS values.
T = Trace of Precipitation, MM = Missing Value Source: NWS Daily Summary

Daily Weather History Graph

Daily Weather History Graph

Search for Another Location

Airport or City:

Astronomy

Apr. 03, 2014 Rise Set
Actual Time 7:19 AM CDT 7:59 PM CDT
Civil Twilight 6:53 AM CDT 8:24 PM CDT
Nautical Twilight 6:23 AM CDT 8:55 PM CDT
Astronomical Twilight 5:52 AM CDT 9:26 PM CDT
Moon 9:56 AM CDT (4/3) No Moon Set
Length of Visible Light 13h 31m
Length of Day
12h 39m
Waxing Crescent, 17% of the Moon is Illuminated
Apr 3
Waxing Crescent
Apr 7
First Quarter
Apr 15
Full
Apr 22
Last Quarter
Apr 29
New

Hourly Weather History & Observations

Time (CDT) Temp. Windchill Dew Point Humidity Pressure Visibility Wind Dir Wind Speed Gust Speed Precip Events Conditions
12:15 AM 69.8 °F - 60.8 °F 73% 29.61 in 10.0 mi South 23.0 mph 33.4 mph N/A   Scattered Clouds
12:35 AM 69.8 °F - 60.8 °F 73% 29.61 in 10.0 mi South 21.9 mph 29.9 mph N/A   Scattered Clouds
12:55 AM 69.8 °F - 60.8 °F 73% 29.61 in 10.0 mi South 19.6 mph 28.8 mph N/A   Clear
1:15 AM 68.0 °F - 60.8 °F 78% 29.60 in 10.0 mi South 19.6 mph 24.2 mph N/A   Clear
1:35 AM 68.0 °F - 60.8 °F 78% 29.59 in 10.0 mi South 17.3 mph - N/A   Clear
1:55 AM 66.2 °F - 60.8 °F 83% 29.59 in 10.0 mi SSE 17.3 mph 23.0 mph N/A   Scattered Clouds
2:15 AM 66.2 °F - 60.8 °F 83% 29.59 in 10.0 mi SSE 16.1 mph 21.9 mph N/A   Scattered Clouds
2:35 AM 64.4 °F - 60.8 °F 88% 29.59 in 10.0 mi SSE 15.0 mph - N/A   Scattered Clouds
2:55 AM 64.4 °F - 60.8 °F 88% 29.59 in 7.0 mi SSE 15.0 mph - N/A   Scattered Clouds
3:15 AM 64.4 °F - 60.8 °F 88% 29.59 in 7.0 mi SSE 15.0 mph - N/A   Clear
3:35 AM 64.4 °F - 60.8 °F 88% 29.59 in 7.0 mi SSE 12.7 mph - N/A   Clear
3:55 AM 62.6 °F - 59.0 °F 88% 29.59 in 7.0 mi South 10.4 mph - N/A   Clear
4:15 AM 62.6 °F - 59.0 °F 88% 29.59 in 5.0 mi SSE 9.2 mph - N/A   Clear
4:35 AM 60.8 °F - 59.0 °F 94% 29.59 in 5.0 mi South 9.2 mph - N/A   Clear
4:55 AM 62.6 °F - 60.8 °F 94% 29.58 in 7.0 mi South 13.8 mph - N/A   Clear
5:15 AM 62.6 °F - 59.0 °F 88% 29.58 in 7.0 mi South 15.0 mph - N/A   Clear
5:35 AM 62.6 °F - 59.0 °F 88% 29.58 in 7.0 mi SSE 11.5 mph - N/A   Clear
5:55 AM 60.8 °F - 59.0 °F 94% 29.59 in 5.0 mi SSE 9.2 mph - N/A   Clear
6:15 AM 60.8 °F - 59.0 °F 94% 29.60 in 5.0 mi South 5.8 mph - N/A   Clear
6:35 AM 60.8 °F - 59.0 °F 94% 29.60 in 4.0 mi South 6.9 mph - N/A   Scattered Clouds
6:55 AM 60.8 °F - 59.0 °F 94% 29.60 in 4.0 mi SSE 8.1 mph - N/A   Scattered Clouds
7:15 AM 60.8 °F - 59.0 °F 94% 29.61 in 4.0 mi SSE 5.8 mph - N/A   Scattered Clouds
7:35 AM 60.8 °F - 59.0 °F 94% 29.62 in 4.0 mi SSE 8.1 mph - N/A   Mostly Cloudy
7:55 AM 60.8 °F - 59.0 °F 94% 29.64 in 3.0 mi WSW 6.9 mph - N/A   Overcast
8:15 AM 60.8 °F - 59.0 °F 94% 29.66 in 5.0 mi NW 12.7 mph 21.9 mph N/A   Mostly Cloudy
8:35 AM 51.8 °F - 48.2 °F 88% 29.68 in 4.0 mi NNW 16.1 mph 24.2 mph N/A   Overcast
8:55 AM 50.0 °F - 46.4 °F 87% 29.70 in 4.0 mi NNW 18.4 mph 24.2 mph N/A   Overcast
9:15 AM 48.2 °F - 44.6 °F 87% 29.71 in 5.0 mi NW 18.4 mph 25.3 mph N/A   Overcast
9:35 AM 46.4 °F 39.0 °F 42.8 °F 87% 29.72 in 10.0 mi NW 19.6 mph 24.2 mph N/A   Overcast
9:55 AM 48.2 °F - 42.8 °F 82% 29.71 in 10.0 mi NW 21.9 mph 27.6 mph N/A   Overcast
10:15 AM 50.0 °F - 41.0 °F 71% 29.71 in 10.0 mi NW 21.9 mph 26.5 mph N/A   Scattered Clouds
10:35 AM 50.0 °F - 41.0 °F 71% 29.71 in 10.0 mi NNW 21.9 mph 28.8 mph N/A   Clear
10:55 AM 51.8 °F - 39.2 °F 62% 29.71 in 10.0 mi NNW 17.3 mph 25.3 mph N/A   Clear
11:15 AM 53.6 °F - 37.4 °F 54% 29.72 in 10.0 mi NNW 18.4 mph 25.3 mph N/A   Clear
11:35 AM 55.4 °F - 37.4 °F 51% 29.72 in 10.0 mi NW 17.3 mph 23.0 mph N/A   Clear
11:55 AM 59.0 °F - 37.4 °F 45% 29.72 in 10.0 mi NW 13.8 mph 17.3 mph N/A   Clear
12:15 PM 59.0 °F - 35.6 °F 42% 29.72 in 10.0 mi NNW 13.8 mph 18.4 mph N/A   Clear
12:35 PM 60.8 °F - 35.6 °F 39% 29.73 in 10.0 mi NW 10.4 mph 18.4 mph N/A   Clear
12:55 PM 62.6 °F - 35.6 °F 37% 29.71 in 10.0 mi NNW 13.8 mph 19.6 mph N/A   Clear
1:15 PM 62.6 °F - 35.6 °F 37% 29.72 in 10.0 mi North 6.9 mph - N/A   Clear
1:35 PM 62.6 °F - 33.8 °F 34% 29.74 in 10.0 mi West 3.5 mph - N/A   Clear
1:55 PM 64.4 °F - 33.8 °F 32% 29.73 in 10.0 mi NNW 8.1 mph - N/A   Clear
2:15 PM 68.0 °F - 33.8 °F 28% 29.73 in 10.0 mi WSW 6.9 mph - N/A   Clear
2:35 PM 68.0 °F - 32.0 °F 26% 29.73 in 10.0 mi West 8.1 mph - N/A   Clear
2:55 PM 69.8 °F - 32.0 °F 25% 29.72 in 10.0 mi WSW 11.5 mph - N/A   Clear
3:15 PM 69.8 °F - 30.2 °F 23% 29.71 in 10.0 mi WNW 10.4 mph 16.1 mph N/A   Clear
3:35 PM 69.8 °F - 32.0 °F 25% 29.72 in 10.0 mi WNW 10.4 mph - N/A   Clear
3:55 PM 69.8 °F - 30.2 °F 23% 29.72 in 10.0 mi WNW 13.8 mph 18.4 mph N/A   Clear
4:15 PM 71.6 °F - 26.6 °F 19% 29.70 in 10.0 mi West 13.8 mph 19.6 mph N/A   Clear
4:35 PM 71.6 °F - 26.6 °F 19% 29.70 in 10.0 mi West 12.7 mph - N/A   Clear
4:55 PM 73.4 °F - 23.0 °F 15% 29.68 in 10.0 mi WSW 16.1 mph 21.9 mph N/A   Clear
5:15 PM 73.4 °F - 21.2 °F 14% 29.68 in 10.0 mi WSW 13.8 mph 25.3 mph N/A   Clear
5:35 PM 73.4 °F - 23.0 °F 15% 29.69 in 10.0 mi West 13.8 mph 18.4 mph N/A   Scattered Clouds
5:55 PM 68.0 °F - 32.0 °F 26% 29.72 in 10.0 mi NNW 21.9 mph 29.9 mph N/A   Scattered Clouds
6:15 PM 64.4 °F - 32.0 °F 30% 29.73 in 10.0 mi NNW 18.4 mph 25.3 mph N/A   Scattered Clouds
6:35 PM 62.6 °F - 32.0 °F 32% 29.75 in 10.0 mi NNW 24.2 mph 31.1 mph N/A   Scattered Clouds
6:55 PM 60.8 °F - 32.0 °F 34% 29.78 in 10.0 mi NNW 21.9 mph 29.9 mph N/A   Scattered Clouds
7:15 PM 57.2 °F - 32.0 °F 38% 29.81 in 10.0 mi NNW 31.1 mph 40.3 mph N/A   Scattered Clouds
7:35 PM 53.6 °F - 32.0 °F 44% 29.85 in 10.0 mi NNW 26.5 mph 36.8 mph N/A   Scattered Clouds
7:55 PM 53.6 °F - 32.0 °F 44% 29.86 in 10.0 mi NNW 27.6 mph 36.8 mph N/A   Scattered Clouds
8:15 PM 51.8 °F - 32.0 °F 47% 29.89 in 10.0 mi NNW 25.3 mph 32.2 mph N/A   Scattered Clouds
8:55 PM 50.0 °F - 32.0 °F 50% 29.93 in 10.0 mi NNW 25.3 mph 32.2 mph N/A   Scattered Clouds
9:35 PM 44.6 °F 34.7 °F 30.2 °F 57% 29.98 in 10.0 mi NNW 29.9 mph 41.4 mph N/A   Clear
11:15 PM 42.8 °F 34.8 °F 30.2 °F 61% 30.03 in 10.0 mi NNW 17.3 mph 20.7 mph N/A   Clear
11:35 PM 41.0 °F 33.1 °F 30.2 °F 65% 30.04 in 10.0 mi NNW 15.0 mph 23.0 mph N/A   Clear
11:55 PM 41.0 °F 33.1 °F 30.2 °F 65% 30.05 in 10.0 mi NNW 15.0 mph - N/A   Clear